KD9WYV Weather Reports


time (UTC)temp
F
wind
direction
speed
knots
gust
knots
rain 1hr
in
rain 24hr
in
rain mn
in
humidity
%
barometer
mb
20260906052147 74 63 4.3 6.1 0.00 0.00 0.00 87 1015.4
20260906051644 74 331 0.9 1.7 0.00 0.00 0.00 87 1015.4
20260906051143 74 102 0.9 0.9 0.00 0.00 0.00 87 1015.5
20260906050638 74 52 0.9 0.9 0.00 0.00 0.00 87 1015.2
20260906050133 74 58 0.9 1.7 0.00 0.00 0.00 87 1015.5
20260906045632 74 66 3.5 6.1 0.00 0.00 0.00 87 1015.3
20260906045127 74 75 0.9 0.9 0.00 0.00 0.00 87 1015.4
20260906044623 74 12 0.0 0.9 0.00 0.00 0.00 88 1015.4
20260906044118 75 2 0.9 0.9 0.00 0.00 0.00 88 1015.5
20260906043615 74 0 1.7 2.6 0.00 0.00 0.00 88 1015.4
20260906043110 74 9 1.7 2.6 0.00 0.00 0.00 89 1015.4
20260906042609 75 12 1.7 2.6 0.00 0.00 0.00 89 1015.4
20260906042103 75 100 4.3 6.1 0.00 0.00 0.00 88 1015.4
20260906041600 75 33 1.7 1.7 0.00 0.00 0.00 87 1015.3
20260906041055 75 74 4.3 5.2 0.00 0.00 0.00 87 1015.3
20260906040550 75 64 0.9 0.9 0.00 0.00 0.00 87 1015.1
20260906040045 75 36 3.5 5.2 0.00 0.00 0.00 88 1015.1
20260906035541 75 49 1.7 1.7 0.00 0.00 0.00 88 1015.1
20260906035037 75 88 1.7 2.6 0.00 0.00 0.00 89 1015.2
20260906034536 75 84 0.9 1.7 0.00 0.00 0.00 88 1015.2
20260906034031 75 83 2.6 3.5 0.00 0.00 0.00 89 1015.0
20260906033526 75 72 4.3 5.2 0.00 0.00 0.00 89 1015.1
20260906033022 75 82 3.5 3.5 0.00 0.00 0.00 89 1015.1
20260906032519 75 77 4.3 5.2 0.00 0.00 0.00 89 1015.2
20260906032018 75 79 1.7 2.6 0.00 0.00 0.00 89 1015.0
20260906031514 75 113 1.7 2.6 0.00 0.00 0.00 89 1015.1
20260906031010 75 54 1.7 2.6 0.00 0.00 0.00 89 1015.0
20260906030509 75 77 3.5 5.2 0.00 0.00 0.00 89 1014.7
20260906030008 75 33 1.7 2.6 0.00 0.00 0.00 88 1014.7
20260906025508 76 70 5.2 7.0 0.00 0.00 0.00 88 1015.1
20260906025007 76 101 3.5 3.5 0.00 0.00 0.00 87 1014.9
20260906024502 76 73 4.3 6.1 0.00 0.00 0.00 87 1014.7
20260906024002 76 124 4.3 6.1 0.00 0.00 0.00 87 1014.7
20260906023458 76 109 2.6 6.1 0.00 0.00 0.00 87 1014.7
20260906022953 76 102 5.2 7.0 0.00 0.00 0.00 87 1014.7
20260906022448 77 56 3.5 3.5 0.00 0.00 0.00 86 1014.6
20260906021944 77 57 4.3 5.2 0.00 0.00 0.00 86 1014.5
20260906021444 77 71 3.5 3.5 0.00 0.00 0.00 86 1014.3
20260906020938 77 90 4.3 6.1 0.00 0.00 0.00 86 1014.2
20260906020433 77 71 4.3 6.1 0.00 0.00 0.00 85 1014.4
20260906015933 77 50 3.5 5.2 0.00 0.00 0.00 85 1014.3
20260906015433 78 108 4.3 5.2 0.00 0.00 0.00 84 1014.4
20260906014932 78 106 5.2 7.0 0.00 0.00 0.00 83 1014.3
20260906014432 78 58 4.3 7.8 0.00 0.00 0.00 82 1014.1
20260906013928 78 107 8.7 9.6 0.00 0.00 0.00 82 1013.9
20260906013424 77 95 7.0 9.6 0.00 0.00 0.00 80 1014.0
20260906012919 77 66 2.6 2.6 0.00 0.00 0.00 79 1013.9
20260906012419 78 105 4.3 6.1 0.00 0.00 0.00 78 1013.5
20260906011918 78 75 1.7 1.7 0.00 0.00 0.00 78 1013.5
20260906011414 78 25 0.0 0.9 0.00 0.00 0.00 76 1013.5
20260906010909 78 61 3.5 3.5 0.00 0.00 0.00 76 1013.4
20260906010405 78 83 2.6 3.5 0.00 0.00 0.00 75 1013.3
20260906005901 78 20 0.9 0.9 0.00 0.00 0.00 75 1013.4
20260906005400 78 12 0.9 0.9 0.00 0.00 0.00 75 1013.5
20260906004858 78 66 1.7 2.6 0.00 0.00 0.00 74 1013.4
20260906004353 78 46 0.9 0.9 0.00 0.00 0.00 74 1013.3
20260906003848 79 13 0.0 0.9 0.00 0.00 0.00 74 1013.4
20260906003344 79 17 0.9 0.9 0.00 0.00 0.00 73 1013.1
20260906002839 80 49 0.0 0.9 0.00 0.00 0.00 72 1012.8
20260906002338 80 43 0.9 0.9 0.00 0.00 0.00 71 1012.8
20260906001834 80 353 0.9 0.9 0.00 0.00 0.00 72 1012.8
20260906001329 80 80 0.9 1.7 0.00 0.00 0.00 70 1012.8
20260906000825 81 3 0.0 0.9 0.00 0.00 0.00 70 1012.8
20260906000319 82 2 0.0 0.9 0.00 0.00 0.00 68 1012.9
20260905235819 82 10 0.0 0.9 0.00 0.00 0.00 68 1012.9
20260905235314 82 329 0.0 0.9 0.00 0.00 0.00 68 1012.9
20260905234809 82 1 0.9 0.9 0.00 0.00 0.00 69 1012.9
20260905234304 81 326 0.0 0.9 0.00 0.00 0.00 70 1013.0
20260905233800 80 50 0.9 0.9 0.00 0.00 0.00 71 1012.9
20260905233300 81 78 2.6 2.6 0.00 0.00 0.00 72 1012.9
20260905232759 81 71 0.9 1.7 0.00 0.00 0.00 72 1013.0
20260905232255 81 68 1.7 2.6 0.00 0.00 0.00 72 1013.2
20260905231751 81 328 0.9 0.9 0.00 0.00 0.00 73 1013.2
20260905231246 81 32 5.2 7.0 0.00 0.00 0.00 72 1013.4
20260905230742 81 64 3.5 5.2 0.00 0.00 0.00 72 1013.2
20260905230240 82 27 3.5 6.1 0.00 0.00 0.00 71 1013.1
20260905225739 82 112 3.5 5.2 0.00 0.00 0.00 70 1013.0
20260905225235 83 151 4.3 6.1 0.00 0.00 0.00 68 1013.3
20260905224734 84 88 4.3 6.1 0.00 0.00 0.00 67 1013.0
20260905224230 84 71 4.3 6.1 0.00 0.00 0.00 66 1012.9
20260905223726 86 9 7.0 9.6 0.00 0.00 0.00 63 1012.8
20260905223222 90 36 2.6 3.5 0.00 0.00 0.00 61 1012.5
20260905222718 90 293 5.2 7.8 0.00 0.00 0.00 59 1012.3
20260905222217 91 283 7.0 7.8 0.00 0.00 0.00 59 1012.3
20260905221713 91 301 5.2 6.1 0.00 0.00 0.00 58 1012.4
20260905221210 91 285 3.5 3.5 0.00 0.00 0.00 58 1012.2
20260905220705 91 317 3.5 5.2 0.00 0.00 0.00 57 1012.2
20260905220201 91 13 3.5 5.2 0.00 0.00 0.00 58 1012.5
20260905215700 90 289 6.1 7.0 0.00 0.00 0.00 58 1012.4
20260905215156 90 294 4.3 6.1 0.00 0.00 0.00 59 1012.4
20260905214652 91 310 5.2 7.0 0.00 0.00 0.00 58 1012.4
20260905214147 91 358 3.5 3.5 0.00 0.00 0.00 58 1012.2
20260905213642 91 313 2.6 2.6 0.00 0.00 0.00 60 1012.1
20260905213137 91 309 0.9 0.9 0.00 0.00 0.00 60 1012.3
20260905212633 90 308 2.6 2.6 0.00 0.00 0.00 61 1012.7
20260905212132 90 312 6.1 7.0 0.00 0.00 0.00 60 1012.6
20260905211627 89 36 3.5 3.5 0.00 0.00 0.00 60 1012.4
20260905211123 89 332 0.9 0.9 0.00 0.00 0.00 60 1012.4
20260905210619 89 284 1.7 2.6 0.00 0.00 0.00 60 1012.5
20260905210113 89 318 1.7 1.7 0.00 0.00 0.00 60 1012.6
20260905205613 90 304 5.2 6.1 0.00 0.00 0.00 58 1012.6
20260905205113 91 336 0.9 1.7 0.00 0.00 0.00 58 1012.6
20260905204612 92 295 3.5 3.5 0.00 0.00 0.00 55 1012.7
20260905204108 91 340 2.6 2.6 0.00 0.00 0.00 57 1012.8
20260905203608 90 324 1.7 2.6 0.00 0.00 0.00 58 1012.8
20260905203103 90 308 3.5 5.2 0.00 0.00 0.00 56 1012.7
20260905202558 90 321 3.5 3.5 0.00 0.00 0.00 56 1012.6
20260905202054 90 273 5.2 7.0 0.00 0.00 0.00 56 1012.8
20260905201549 91 283 6.1 7.8 0.00 0.00 0.00 55 1013.0
20260905201049 92 309 2.6 2.6 0.00 0.00 0.00 54 1012.8
20260905200544 93 289 3.5 3.5 0.00 0.00 0.00 53 1013.0
20260905200044 93 257 3.5 6.1 0.00 0.00 0.00 53 1013.1
20260905195538 94 278 7.0 11.3 0.00 0.00 0.00 51 1013.0
20260905195034 93 301 1.7 2.6 0.00 0.00 0.00 51 1013.0
20260905194533 92 308 5.2 6.1 0.00 0.00 0.00 53 1013.0
20260905194032 92 316 4.3 5.2 0.00 0.00 0.00 52 1013.0
20260905193527 92 305 1.7 2.6 0.00 0.00 0.00 52 1013.0
20260905193023 92 309 2.6 2.6 0.00 0.00 0.00 53 1013.0
20260905192518 92 317 2.6 5.2 0.00 0.00 0.00 53 1013.3
20260905192015 93 322 5.2 7.0 0.00 0.00 0.00 51 1013.2
20260905191513 93 323 3.5 5.2 0.00 0.00 0.00 50 1013.4
20260905191012 93 296 4.3 7.0 0.00 0.00 0.00 51 1013.3
20260905190510 93 290 5.2 7.8 0.00 0.00 0.00 51 1013.5
20260905190010 93 330 2.6 3.5 0.00 0.00 0.00 51 1013.3
20260905185504 93 322 2.6 3.5 0.00 0.00 0.00 51 1013.5
20260905185003 93 277 7.8 9.6 0.00 0.00 0.00 48 1013.6
20260905184458 93 239 7.0 7.8 0.00 0.00 0.00 50 1013.5
20260905183957 93 304 3.5 3.5 0.00 0.00 0.00 49 1013.6
20260905183456 91 348 4.3 6.1 0.00 0.00 0.00 51 1013.7
20260905182951 91 276 2.6 5.2 0.00 0.00 0.00 51 1013.9
20260905182451 91 286 2.6 2.6 0.00 0.00 0.00 52 1014.1
20260905181947 92 271 3.5 3.5 0.00 0.00 0.00 50 1014.1
20260905181447 92 237 4.3 5.2 0.00 0.00 0.00 49 1014.2
20260905180946 92 279 0.0 0.9 0.00 0.00 0.00 50 1014.1
20260905180441 91 226 3.5 3.5 0.00 0.00 0.00 50 1013.9
20260905175936 91 342 3.5 5.2 0.00 0.00 0.00 51 1014.0
20260905175435 90 264 2.6 3.5 0.00 0.00 0.00 51 1014.2
20260905174931 90 349 3.5 5.2 0.00 0.00 0.00 51 1014.0
20260905174426 90 235 3.5 3.5 0.00 0.00 0.00 51 1014.4
20260905173922 91 254 4.3 5.2 0.00 0.00 0.00 48 1014.3
20260905173418 91 306 1.7 2.6 0.00 0.00 0.00 50 1014.4
20260905172919 91 262 5.2 6.1 0.00 0.00 0.00 50 1014.5
20260905172416 89 321 1.7 1.7 0.00 0.00 0.00 51 1014.4
20260905171913 90 221 3.5 5.2 0.00 0.00 0.00 50 1014.6
20260905171409 91 255 1.7 1.7 0.00 0.00 0.00 50 1014.9
20260905170905 89 250 1.7 2.6 0.00 0.00 0.00 52 1014.5
20260905170401 88 166 1.7 2.6 0.00 0.00 0.00 54 1014.9
20260905165900 88 224 4.3 6.1 0.00 0.00 0.00 52 1015.1
20260905165356 88 267 0.9 0.9 0.00 0.00 0.00 54 1015.1
20260905164856 87 170 1.7 2.6 0.00 0.00 0.00 55 1015.3
20260905164351 88 80 1.7 2.6 0.00 0.00 0.00 53 1015.2
20260905163846 87 132 1.7 3.5 0.00 0.00 0.00 55 1015.3
20260905163343 85 112 1.7 2.6 0.00 0.00 0.00 56 1015.2
20260905162838 86 346 3.5 3.5 0.00 0.00 0.00 57 1015.3
20260905162338 86 226 3.5 5.2 0.00 0.00 0.00 57 1015.6
20260905161832 84 333 2.6 2.6 0.00 0.00 0.00 60 1015.4
20260905161332 82 152 2.6 2.6 0.00 0.00 0.00 68 1015.4
20260905160830 81 97 0.9 0.9 0.00 0.00 0.00 71 1015.2
20260905160325 80 306 0.9 0.9 0.00 0.00 0.00 71 1015.4
20260905155820 80 131 0.9 0.9 0.00 0.00 0.00 70 1015.4
20260905155319 81 113 1.7 2.6 0.00 0.00 0.00 67 1015.6
20260905154813 82 81 0.9 1.7 0.00 0.00 0.00 64 1015.5
20260905154308 83 249 1.7 1.7 0.00 0.00 0.00 61 1015.6
20260905153804 86 294 3.5 6.1 0.00 0.00 0.00 62 1015.5
20260905153301 86 282 2.6 3.5 0.00 0.00 0.00 56 1015.6
20260905152800 86 187 2.6 3.5 0.00 0.00 0.00 56 1015.2
20260905152259 85 319 0.9 1.7 0.00 0.00 0.00 57 1015.5
20260905151800 84 200 1.7 3.5 0.00 0.00 0.00 58 1015.5
20260905151256 84 192 1.7 2.6 0.00 0.00 0.00 59 1015.5
20260905150756 84 242 5.2 7.0 0.00 0.00 0.00 59 1015.6
20260905150255 83 16 0.0 0.9 0.00 0.00 0.00 60 1015.4
20260905145753 83 301 1.7 2.6 0.00 0.00 0.00 59 1015.5
20260905145247 82 65 3.5 5.2 0.00 0.00 0.00 63 1015.2
20260905144746 81 81 1.7 1.7 0.00 0.00 0.00 63 1015.5
20260905144242 81 222 3.5 6.1 0.00 0.00 0.00 63 1015.6
20260905143741 81 113 7.8 9.6 0.00 0.00 0.00 62 1015.5
20260905143241 80 256 1.7 1.7 0.00 0.00 0.00 65 1015.5
20260905142739 80 139 1.7 1.7 0.00 0.00 0.00 65 1015.2
20260905142234 80 167 5.2 7.0 0.00 0.00 0.00 64 1015.5
20260905141730 80 231 2.6 3.5 0.00 0.00 0.00 65 1015.5
20260905141226 79 173 4.3 7.0 0.00 0.00 0.00 66 1015.6
20260905140721 79 102 4.3 7.0 0.00 0.00 0.00 67 1015.7
20260905140215 79 159 4.3 6.1 0.00 0.00 0.00 67 1015.6
20260905135715 79 145 4.3 6.1 0.00 0.00 0.00 66 1015.7
20260905135211 77 112 1.7 2.6 0.00 0.00 0.00 69 1016.0
20260905134710 76 300 1.7 2.6 0.00 0.00 0.00 71 1015.8
20260905134209 75 131 8.7 11.3 0.00 0.00 0.00 72 1015.9
20260905133704 76 101 5.2 7.8 0.00 0.00 0.00 72 1015.7
20260905133200 76 109 6.1 7.8 0.00 0.00 0.00 70 1015.9
20260905132658 75 327 3.5 3.5 0.00 0.00 0.00 72 1015.8
20260905132154 76 100 6.1 8.7 0.00 0.00 0.00 71 1015.8
20260905131650 76 202 1.7 1.7 0.00 0.00 0.00 71 1016.0
20260905131150 75 162 7.0 8.7 0.00 0.00 0.00 72 1016.1
20260905130645 76 120 7.0 8.7 0.00 0.00 0.00 72 1016.0
20260905130144 75 171 3.5 3.5 0.00 0.00 0.00 72 1015.9
20260905125638 75 182 3.5 5.2 0.00 0.00 0.00 73 1015.6
20260905125134 75 125 7.0 8.7 0.00 0.00 0.00 73 1015.4
20260905124630 75 133 2.6 3.5 0.00 0.00 0.00 73 1015.7
20260905124126 75 78 2.6 3.5 0.00 0.00 0.00 73 1015.5
20260905123622 74 98 0.0 0.9 0.00 0.00 0.00 75 1015.7
20260905123119 74 144 5.2 8.7 0.00 0.00 0.00 74 1015.7
20260905122618 74 84 4.3 8.7 0.00 0.00 0.00 75 1015.5
20260905122118 74 135 6.1 7.8 0.00 0.00 0.00 75 1015.5
20260905121613 73 190 1.7 2.6 0.00 0.00 0.00 76 1015.7
20260905121109 73 125 3.5 5.2 0.00 0.00 0.00 77 1015.5
20260905120608 72 109 6.1 7.8 0.00 0.00 0.00 78 1015.6
20260905115602 72 134 4.3 5.2 0.00 0.00 0.00 79 1015.4
20260905115057 72 168 3.5 5.2 0.00 0.00 0.00 79 1015.4
20260905114556 72 118 3.5 5.2 0.00 0.00 0.00 79 1015.7
20260905114055 72 143 6.1 7.8 0.00 0.00 0.00 79 1015.6
20260905113550 72 68 0.9 1.7 0.00 0.00 0.00 79 1015.5
20260905113045 72 98 9.6 11.3 0.00 0.00 0.00 79 1015.5
20260905112541 72 91 1.7 1.7 0.00 0.00 0.00 79 1015.4
20260905112036 72 168 1.7 2.6 0.00 0.00 0.00 79 1015.3
20260905111531 72 114 5.2 7.0 0.00 0.00 0.00 79 1015.6
20260905111030 72 103 3.5 5.2 0.00 0.00 0.00 79 1015.5
20260905110529 73 104 6.1 7.8 0.00 0.00 0.00 79 1015.4
20260905110025 73 105 6.1 8.7 0.00 0.00 0.00 79 1015.3
20260905105525 73 108 6.1 7.8 0.00 0.00 0.00 79 1015.2
20260905105024 73 136 6.1 7.0 0.00 0.00 0.00 79 1015.3
20260905104520 73 119 3.5 6.1 0.00 0.00 0.00 79 1015.3
20260905104019 73 103 2.6 3.5 0.00 0.00 0.00 79 1015.5
20260905103515 73 73 9.6 12.2 0.00 0.00 0.00 79 1015.5
20260905103011 74 78 7.8 11.3 0.00 0.00 0.00 79 1015.4
20260905102506 75 130 9.6 13.0 0.00 0.00 0.00 80 1015.1
20260905102002 76 96 7.0 7.8 0.00 0.00 0.00 89 1015.0
20260905101500 76 55 3.5 5.2 0.00 0.00 0.00 90 1015.0
20260905100959 76 77 0.9 1.7 0.00 0.00 0.00 91 1014.2
20260905100455 77 25 0.9 0.9 0.00 0.00 0.00 89 1014.1
20260905095954 77 350 0.0 0.0 0.00 0.00 0.00 88 1014.2
20260905095449 77 353 0.0 0.0 0.00 0.00 0.00 88 1014.2
20260905094945 77 354 0.0 0.9 0.00 0.00 0.00 88 1014.1
20260905094440 77 12 0.0 0.9 0.00 0.00 0.00 89 1014.1
20260905093939 77 6 0.0 0.0 0.00 0.00 0.00 89 1014.1
20260905093434 77 358 0.0 0.9 0.00 0.00 0.00 89 1013.8
20260905092930 77 333 0.0 0.0 0.00 0.00 0.00 89 1014.0
20260905092425 77 355 0.0 0.0 0.00 0.00 0.00 89 1014.1
20260905091920 77 329 0.0 0.0 0.00 0.00 0.00 89 1014.0
20260905091420 77 4 0.0 0.0 0.00 0.00 0.00 88 1013.8
20260905090920 77 49 0.9 0.9 0.00 0.00 0.00 87 1014.0
20260905090415 78 4 0.0 0.0 0.00 0.00 0.00 87 1013.9
20260905085915 78 331 0.0 0.0 0.00 0.00 0.00 87 1014.0
20260905085414 77 3 0.0 0.0 0.00 0.00 0.00 88 1013.9
20260905084910 77 357 0.0 0.0 0.00 0.00 0.00 89 1014.0
20260905084409 77 356 0.0 0.0 0.00 0.00 0.00 89 1014.1
20260905083904 77 342 0.0 0.0 0.00 0.00 0.00 88 1014.0
20260905083400 78 359 0.0 0.0 0.00 0.00 0.00 87 1014.0
20260905082855 78 348 0.0 0.0 0.00 0.00 0.00 85 1014.0
20260905082351 79 328 0.0 0.0 0.00 0.00 0.00 84 1013.9
20260905081846 79 323 0.0 0.0 0.00 0.00 0.00 84 1013.9
20260905081341 79 322 0.0 0.0 0.00 0.00 0.00 84 1014.0
20260905080841 78 342 0.0 0.0 0.00 0.00 0.00 85 1013.9
20260905080341 78 1 0.0 0.0 0.00 0.00 0.00 85 1013.8
20260905075840 79 1 0.0 0.9 0.00 0.00 0.00 84 1013.9
20260905075339 78 356 0.0 0.0 0.00 0.00 0.00 84 1013.6
20260905074839 79 333 0.0 0.0 0.00 0.00 0.00 84 1013.6
20260905074335 79 319 0.0 0.0 0.00 0.00 0.00 83 1013.5
20260905073830 79 325 0.0 0.0 0.00 0.00 0.00 83 1013.3
20260905073325 79 303 0.9 0.9 0.00 0.00 0.00 82 1013.3
20260905072820 80 296 0.9 0.9 0.00 0.00 0.00 82 1013.1
20260905072315 79 271 0.9 0.9 0.00 0.00 0.00 82 1012.9
20260905071811 79 298 0.9 0.9 0.00 0.00 0.00 82 1012.9
20260905071307 79 314 0.0 0.0 0.00 0.00 0.00 82 1012.9
20260905070801 79 311 0.0 0.0 0.00 0.00 0.00 82 1013.3
20260905070259 79 311 0.0 0.9 0.00 0.00 0.00 83 1013.2
20260905065757 78 299 0.9 0.9 0.00 0.00 0.00 84 1013.3
20260905065256 78 298 0.9 0.9 0.00 0.00 0.00 84 1013.3
20260905064752 79 324 0.0 0.0 0.00 0.00 0.00 83 1013.4
20260905064247 79 324 0.0 0.0 0.00 0.00 0.00 82 1013.5
20260905063745 79 314 0.9 0.9 0.00 0.00 0.00 81 1013.6
20260905063242 80 321 0.0 0.0 0.00 0.00 0.00 81 1013.6
20260905062737 80 302 0.9 0.9 0.00 0.00 0.00 81 1013.8
20260905062237 80 257 0.9 0.9 0.00 0.00 0.00 81 1013.9
20260905061732 79 307 0.9 0.9 0.00 0.00 0.00 81 1013.9
20260905061227 79 311 0.9 0.9 0.00 0.00 0.00 81 1013.9
20260905060726 79 303 0.0 0.0 0.00 0.00 0.00 82 1014.2
20260905060224 79 258 0.9 1.7 0.00 0.00 0.00 82 1014.0
20260905055721 79 314 0.9 0.9 0.00 0.00 0.00 82 1014.1
20260905055217 79 280 0.9 0.9 0.00 0.00 0.00 82 1014.1
20260905054712 79 338 0.0 0.0 0.00 0.00 0.00 81 1014.1
20260905054209 79 334 0.9 0.9 0.00 0.00 0.00 81 1014.2
20260905053708 80 324 0.0 0.0 0.00 0.00 0.00 81 1014.2
20260905053203 80 324 0.0 0.0 0.00 0.00 0.00 81 1014.2
20260905052703 80 322 0.0 0.0 0.00 0.00 0.00 81 1014.5